CHINASAT 9A (ZX 9A)

Last updated on Nov. 13, 2019, 4:20 a.m. UTC

1 42763U 17035A   19316.64091766 -.00000299  00000-0  00000+0 0  9997
2 42763   0.0438 124.7904 0001806  33.0342 225.8639  1.00273247  9501
UTC
Height (km)
Latitude
Longitude
Inclination
Orbital Period
UTC large
Height (km)
Speed (km/s)
/
Latitude / Longitude
Inclination (degrees)
Orbital Period (minutes)
Azimuth
Elevation
Range (km)
Doppler Factor
iOS Compass Heading
iOS Angle

Next 30 passes for location: Hong Kong

Rise time Rise Azimuth (degrees) Set time Set Azimuth (degrees) Duration Max altitude (degrees)

No matching passes for this satellites